User: anonymous   Login
Location: Austin
(30.3000°N, 97.7500°W)
Time: 12:52:27
(UTC-05:00)
Language:

DELTA 2 R/B (1) - Orbit

View from above orbital plane
View from above orbital plane
View from above satellite
View from above satellite

Ground track
Ground track

The orbit data is extracted from the following two-line orbital elements,

1 27665U 03005C   24171.91138337  .00000110  00000-0  76565-4 0  9999
2 27665  39.5769  33.5068 0008804 341.2798 141.4181 14.29025482116944
Epoch (UTC): 19 June 2024 21:52:23
Eccentricity: 0.0008804
inclination: 39.5769°
perigee height: 788 km
apogee height: 801 km
right ascension of ascending node: 33.5068°
argument of perigee: 341.2798°
revolutions per day: 14.29025482
mean anomaly at epoch: 141.4181°
orbit number at epoch: 11694

The dashed part of the orbit path shows where the satellite is in the earth's shadow,  

DLR